DECAYED

STARLINK-5314, 55678 (Decayed)

Orbit data source: Space-Track

STARLINK-5314, 55678 was a payload satellite owned by SpaceX/Seattle (US) in LEO that was launched on Fri, 17 Feb 2023 UTC via an FALCON 9 launch vehicle from the Air Force Western Test Range (AFWTR). Payload-class satellites include a variety of spacecraft equipped with specific instruments for various scientific and technological missions. These include communications satellites like Starlink; space stations such as the ISS; scientific satellites like the Hubble; Earth observation satellites from companies like Planet Labs, Umbra, and HawkEye 360; GPS; miniature CubeSats for education and research; and military/defense satellites.

Not visible in the next 10 days
Identifier
55678, 2023-021BC
Orbit
Decayed
Country
Flag of USUS
Related business
Manufacturer
SpaceX/Seattle
Mission
Decayed Commercial Communications
Bus & Motor
STARLINK, Unknown motor
Mass
305 kg wet, ~290 kg dry
Launch date (UTC)
2023-02-17 (3 years ago)
Launch vehicle
FALCON 9
Launch site
Air Force Western Test Range (AFWTR)
Object type
Payload
Rocket body
Debris
Shape & HBR
Box + 1 Pan, 10.1 m
Radar Cross Section
13.562 m², Large (>1 m²)

Expand to show TLE details & history
Last TLE update: 1 year ago

TLE from 1 year ago
0 STARLINK-5314
1 55678U 23021BC  25086.67269705  .06203762  43774-5  77082-3 0  9995
2 55678  69.9923 303.8869 0016634 305.7177 137.1016 16.35391708117380
Epoch: 2025-03-27T16:08Z
TLE epoch observation values (Epoch: 2025-03-27T16:08:41.025Z)
Latitude
68.94213°
Longitude
-53.5253°
Altitude
197.37 km
Speed
7.79 km/s
True Right ascension
00h 55m 57s
True Declination
68° 48' 60"
Sunlit
Object was in daylight at epoch
Visualization orbit readout
Latitude
Unknown
Longitude
Unknown
Altitude
Unknown
Speed
Unknown
Apparent Right ascension
Unknown
Apparent Declination
Unknown
Sunlit
N/A
Visualization observer readout
Local Sidereal Time
21:33:22
Azimuth
Unknown
Elevation
Unknown
Doppler factor
Unknown
Orbital elements
Apogee altitude
186.817 km
Perigee altitude
165.013 km
Semi-major axis
6,554.052 km
Eccentricity
0.00166
Inclination
69.9923°
RAAN
303.8869°
Arg. of periapsis
305.7177°
True anomaly
137.23115°
Mean anomaly
137.1016°
Eccentric anomaly
137.1664°
Mean motion
4.09052 °/min
Orbital period
88.01 mins
BSTAR
0.00077082
Loading maneuver chart data...
Computing Atmospheric mass density...

Documentation

Showing up to 5 results
|